Time,TemperatureF,DewpointF,PressureIn,WindDirection,WindDirectionDegrees,WindSpeedMPH,WindSpeedGustMPH,Humidity,HourlyPrecipIn,Conditions,Clouds,dailyrainin,SoftwareType,DateUTC
2013-01-02 00:02:00,70.0,67.0,29.97,East,99,0.0,0.0,91,0.01,,,0.01,,2013-01-02 06:02:00,
2013-01-02 00:12:00,70.0,67.0,29.97,East,99,0.0,0.0,91,0.01,,,0.01,,2013-01-02 06:12:00,
2013-01-02 00:22:00,70.0,67.0,29.97,East,99,0.0,0.0,91,0.00,,,0.01,,2013-01-02 06:22:00,
2013-01-02 00:32:00,70.0,68.0,29.97,East,100,0.0,0.0,92,0.00,,,0.01,,2013-01-02 06:32:00,
2013-01-02 00:42:00,70.0,68.0,29.97,East,100,0.0,0.0,92,0.00,,,0.01,,2013-01-02 06:42:00,
2013-01-02 00:52:00,70.0,68.0,29.97,East,100,0.0,0.0,92,0.00,,,0.01,,2013-01-02 06:52:00,
2013-01-02 01:02:00,70.0,68.0,29.97,East,100,0.0,0.0,92,0.00,,,0.01,,2013-01-02 07:02:00,
2013-01-02 07:52:00,68.0,67.0,30.00,ESE,113,0.0,0.0,95,0.00,,,0.01,,2013-01-02 13:52:00,
2013-01-02 08:02:00,68.0,67.0,30.00,ESE,113,0.0,0.0,96,0.00,,,0.01,,2013-01-02 14:02:00,
2013-01-02 08:12:00,68.0,67.0,30.00,ESE,113,0.0,0.0,96,0.00,,,0.01,,2013-01-02 14:12:00,
2013-01-02 08:22:00,68.0,67.0,30.01,ESE,116,0.0,0.0,96,0.00,,,0.01,,2013-01-02 14:22:00,
2013-01-02 08:33:00,69.0,68.0,30.01,ESE,105,0.0,4.0,96,0.00,,,0.01,,2013-01-02 14:33:00,
2013-01-02 08:43:00,69.0,68.0,30.01,ESE,105,0.0,4.0,96,0.00,,,0.01,,2013-01-02 14:43:00,
2013-01-02 08:53:00,69.0,68.0,30.01,SE,131,0.0,5.0,96,0.00,,,0.01,,2013-01-02 14:53:00,
2013-01-02 09:03:00,70.0,69.0,30.01,SE,131,0.0,0.0,96,0.00,,,0.01,,2013-01-02 15:03:00,
2013-01-02 09:12:00,70.0,69.0,30.01,SE,131,0.0,0.0,96,0.00,,,0.01,,2013-01-02 15:12:00,
2013-01-02 09:22:00,70.0,68.0,30.01,SE,141,1.0,7.0,95,0.00,,,0.01,,2013-01-02 15:22:00,
2013-01-02 09:33:00,71.0,69.0,30.01,SE,124,0.0,8.0,93,0.00,,,0.01,,2013-01-02 15:33:00,
2013-01-02 09:43:00,71.0,69.0,30.01,SE,124,0.0,8.0,93,0.00,,,0.01,,2013-01-02 15:43:00,
2013-01-02 09:52:00,72.0,69.0,30.02,SE,134,0.0,7.0,91,0.00,,,0.01,,2013-01-02 15:52:00,
2013-01-02 10:03:00,72.0,69.0,30.02,ESE,115,0.0,5.0,91,0.00,,,0.01,,2013-01-02 16:03:00,
2013-01-02 10:13:00,72.0,69.0,30.02,ESE,115,0.0,5.0,91,0.00,,,0.01,,2013-01-02 16:13:00,
2013-01-02 10:22:00,73.0,70.0,30.01,SE,145,3.0,12.0,89,0.00,,,0.01,,2013-01-02 16:22:00,
2013-01-02 10:33:00,74.0,70.0,30.01,ESE,111,6.0,13.0,86,0.00,,,0.01,,2013-01-02 16:33:00,
2013-01-02 10:43:00,74.0,70.0,30.01,ESE,111,6.0,13.0,86,0.00,,,0.01,,2013-01-02 16:43:00,
2013-01-02 10:53:00,75.0,69.0,30.01,East,94,4.0,11.0,83,0.00,,,0.01,,2013-01-02 16:53:00,
2013-01-02 11:03:00,76.0,69.0,30.01,ESE,112,1.0,12.0,79,0.00,,,0.01,,2013-01-02 17:03:00,
2013-01-02 11:13:00,76.0,69.0,30.01,ESE,112,1.0,12.0,79,0.00,,,0.01,,2013-01-02 17:13:00,
2013-01-02 11:23:00,77.0,69.0,30.00,East,94,3.0,11.0,76,0.00,,,0.01,,2013-01-02 17:23:00,
2013-01-02 11:33:00,77.0,68.0,30.00,East,101,3.0,11.0,74,0.00,,,0.01,,2013-01-02 17:33:00,
2013-01-02 11:43:00,77.0,68.0,30.00,East,101,3.0,11.0,74,0.00,,,0.01,,2013-01-02 17:43:00,
2013-01-02 11:53:00,77.0,67.0,29.99,SE,135,5.0,12.0,72,0.00,,,0.01,,2013-01-02 17:53:00,
2013-01-02 12:02:00,78.0,68.0,29.98,SSE,150,0.0,10.0,72,0.00,,,0.01,,2013-01-02 18:02:00,
2013-01-02 12:12:00,78.0,68.0,29.98,SSE,150,0.0,10.0,72,0.00,,,0.01,,2013-01-02 18:12:00,
2013-01-02 12:22:00,78.0,68.0,29.98,ESE,109,0.0,10.0,71,0.00,,,0.01,,2013-01-02 18:22:00,
2013-01-02 12:33:00,79.0,68.0,29.97,SE,144,10.0,14.0,68,0.00,,,0.01,,2013-01-02 18:33:00,
2013-01-02 12:43:00,79.0,68.0,29.97,SE,144,10.0,14.0,68,0.00,,,0.01,,2013-01-02 18:43:00,
2013-01-02 12:53:00,79.0,68.0,29.96,SSE,150,3.0,12.0,69,0.00,,,0.01,,2013-01-02 18:53:00,
2013-01-02 13:03:00,80.0,68.0,29.96,SE,136,1.0,11.0,68,0.00,,,0.01,,2013-01-02 19:03:00,
2013-01-02 13:12:00,80.0,68.0,29.96,SE,136,1.0,11.0,68,0.00,,,0.01,,2013-01-02 19:12:00,
2013-01-02 13:22:00,80.0,69.0,29.95,ESE,114,4.0,11.0,69,0.00,,,0.01,,2013-01-02 19:22:00,
2013-01-02 13:33:00,80.0,68.0,29.94,ESE,109,1.0,9.0,68,0.00,,,0.01,,2013-01-02 19:33:00,
2013-01-02 13:43:00,80.0,68.0,29.94,ESE,109,1.0,9.0,68,0.00,,,0.01,,2013-01-02 19:43:00,
2013-01-02 13:52:00,81.0,67.0,29.93,ESE,117,3.0,13.0,63,0.00,,,0.01,,2013-01-02 19:52:00,
2013-01-02 14:03:00,81.0,69.0,29.93,SE,133,5.0,16.0,66,0.00,,,0.01,,2013-01-02 20:03:00,
2013-01-02 14:12:00,81.0,69.0,29.93,SE,133,5.0,16.0,66,0.00,,,0.01,,2013-01-02 20:12:00,
2013-01-02 14:23:00,81.0,68.0,29.93,SE,144,9.0,15.0,64,0.00,,,0.01,,2013-01-02 20:23:00,
2013-01-02 14:33:00,81.0,68.0,29.93,SE,127,6.0,12.0,65,0.00,,,0.01,,2013-01-02 20:33:00,
2013-01-02 14:42:00,81.0,68.0,29.93,SE,127,6.0,12.0,65,0.00,,,0.01,,2013-01-02 20:42:00,
2013-01-02 14:53:00,81.0,69.0,29.93,ESE,114,6.0,14.0,67,0.00,,,0.01,,2013-01-02 20:53:00,
2013-01-02 15:03:00,81.0,68.0,29.93,East,92,4.0,13.0,65,0.00,,,0.01,,2013-01-02 21:03:00,
2013-01-02 15:13:00,81.0,68.0,29.93,East,92,4.0,13.0,65,0.00,,,0.01,,2013-01-02 21:13:00,
2013-01-02 15:22:00,80.0,68.0,29.93,ESE,113,2.0,15.0,66,0.00,,,0.01,,2013-01-02 21:22:00,
2013-01-02 15:32:00,80.0,68.0,29.93,SE,132,7.0,13.0,67,0.00,,,0.01,,2013-01-02 21:32:00,
2013-01-02 15:43:00,80.0,68.0,29.93,SE,132,7.0,13.0,67,0.00,,,0.01,,2013-01-02 21:43:00,
2013-01-02 15:52:00,80.0,70.0,29.93,SSE,153,6.0,12.0,71,0.00,,,0.01,,2013-01-02 21:52:00,
2013-01-02 16:03:00,79.0,68.0,29.93,SE,130,9.0,13.0,70,0.00,,,0.01,,2013-01-02 22:03:00,
2013-01-02 16:12:00,79.0,68.0,29.93,SE,130,9.0,13.0,70,0.00,,,0.01,,2013-01-02 22:12:00,
2013-01-02 16:22:00,79.0,69.0,29.93,ESE,111,7.0,13.0,72,0.00,,,0.01,,2013-01-02 22:22:00,
2013-01-02 16:32:00,79.0,68.0,29.94,SE,138,5.0,12.0,70,0.00,,,0.01,,2013-01-02 22:32:00,
2013-01-02 16:42:00,79.0,68.0,29.94,SE,138,5.0,12.0,70,0.00,,,0.01,,2013-01-02 22:42:00,
2013-01-02 16:52:00,78.0,69.0,29.94,ESE,121,2.0,12.0,73,0.00,,,0.01,,2013-01-02 22:52:00,
2013-01-02 17:03:00,77.0,68.0,29.94,ESE,119,4.0,11.0,75,0.00,,,0.01,,2013-01-02 23:03:00,
2013-01-02 17:12:00,76.0,68.0,29.95,ESE,116,4.0,9.0,77,0.00,,,0.01,,2013-01-02 23:12:00,
2013-01-02 17:23:00,76.0,68.0,29.95,ESE,116,4.0,9.0,77,0.00,,,0.01,,2013-01-02 23:23:00,
2013-01-02 17:33:00,76.0,69.0,29.95,SE,130,0.0,6.0,78,0.00,,,0.01,,2013-01-02 23:33:00,
2013-01-02 17:42:00,76.0,69.0,29.95,SE,130,0.0,6.0,78,0.00,,,0.01,,2013-01-02 23:42:00,
2013-01-02 17:52:00,75.0,68.0,29.96,SE,125,0.0,0.0,79,0.00,,,0.01,,2013-01-02 23:52:00,
2013-01-02 18:02:00,74.0,67.0,29.96,ESE,122,0.0,0.0,80,0.00,,,0.01,,2013-01-03 00:02:00,
2013-01-02 18:12:00,74.0,67.0,29.96,ESE,122,0.0,0.0,80,0.00,,,0.01,,2013-01-03 00:12:00,
2013-01-02 18:22:00,74.0,67.0,29.96,ESE,117,0.0,0.0,80,0.00,,,0.01,,2013-01-03 00:22:00,
2013-01-02 18:38:00,74.0,68.0,29.97,SE,136,0.0,0.0,81,0.00,,,0.01,,2013-01-03 00:38:00,
2013-01-02 18:52:00,73.0,67.0,29.97,SE,135,0.0,0.0,81,0.00,,,0.01,,2013-01-03 00:52:00,
2013-01-02 19:02:00,73.0,67.0,29.98,SE,134,0.0,0.0,82,0.00,,,0.01,,2013-01-03 01:02:00,
2013-01-02 19:12:00,73.0,67.0,29.98,SE,134,0.0,0.0,82,0.00,,,0.01,,2013-01-03 01:12:00,
2013-01-02 19:22:00,73.0,67.0,29.98,SE,134,0.0,0.0,82,0.00,,,0.01,,2013-01-03 01:22:00,
2013-01-02 19:32:00,73.0,68.0,29.99,SE,134,0.0,0.0,83,0.00,,,0.01,,2013-01-03 01:32:00,
2013-01-02 19:42:00,73.0,68.0,29.99,SE,134,0.0,0.0,83,0.00,,,0.01,,2013-01-03 01:42:00,
2013-01-02 19:52:00,72.0,67.0,30.00,SE,134,0.0,0.0,83,0.00,,,0.01,,2013-01-03 01:52:00,
2013-01-02 20:02:00,72.0,67.0,30.00,SE,134,0.0,0.0,84,0.00,,,0.01,,2013-01-03 02:02:00,
2013-01-02 20:12:00,72.0,67.0,30.00,SE,134,0.0,0.0,84,0.00,,,0.01,,2013-01-03 02:12:00,
2013-01-02 20:22:00,72.0,67.0,30.00,SE,134,0.0,0.0,84,0.00,,,0.01,,2013-01-03 02:22:00,
2013-01-02 20:33:00,72.0,67.0,30.00,SE,135,0.0,0.0,84,0.00,,,0.01,,2013-01-03 02:33:00,
2013-01-02 20:42:00,72.0,67.0,30.00,SE,135,0.0,0.0,84,0.00,,,0.01,,2013-01-03 02:42:00,
2013-01-02 20:52:00,72.0,67.0,30.00,SE,135,0.0,0.0,84,0.00,,,0.01,,2013-01-03 02:52:00,
2013-01-02 21:02:00,71.0,67.0,30.01,SSE,159,0.0,0.0,87,0.00,,,0.01,,2013-01-03 03:02:00,
2013-01-02 21:12:00,71.0,67.0,30.01,SSE,159,0.0,0.0,87,0.00,,,0.01,,2013-01-03 03:12:00,
2013-01-02 21:22:00,71.0,67.0,30.01,SSE,159,0.0,0.0,87,0.00,,,0.01,,2013-01-03 03:22:00,
2013-01-02 21:46:00,70.0,66.0,30.01,SSE,157,0.0,0.0,87,0.00,,,0.01,,2013-01-03 03:46:00,
2013-01-02 21:52:00,70.0,66.0,30.01,SE,146,0.0,1.0,88,0.00,,,0.01,,2013-01-03 03:52:00,
2013-01-02 22:02:00,70.0,66.0,30.01,SE,143,1.0,7.0,88,0.00,,,0.01,,2013-01-03 04:02:00,
2013-01-02 22:12:00,70.0,66.0,30.01,SE,143,1.0,7.0,88,0.00,,,0.01,,2013-01-03 04:12:00,
2013-01-02 22:22:00,69.0,65.0,30.01,SE,136,2.0,11.0,88,0.00,,,0.01,,2013-01-03 04:22:00,
2013-01-02 22:32:00,69.0,66.0,30.01,SE,146,0.0,5.0,89,0.00,,,0.01,,2013-01-03 04:32:00,
2013-01-02 22:42:00,69.0,66.0,30.01,SE,146,0.0,5.0,89,0.00,,,0.01,,2013-01-03 04:42:00,
2013-01-02 22:52:00,69.0,66.0,30.01,SSE,158,0.0,0.0,89,0.00,,,0.01,,2013-01-03 04:52:00,
2013-01-02 23:03:00,69.0,66.0,30.01,SSE,158,0.0,0.0,89,0.00,,,0.01,,2013-01-03 05:03:00,
2013-01-02 23:12:00,69.0,66.0,30.01,SSE,158,0.0,0.0,89,0.00,,,0.01,,2013-01-03 05:12:00,
2013-01-02 23:22:00,69.0,66.0,30.01,SSE,158,0.0,0.0,89,0.00,,,0.01,,2013-01-03 05:22:00,